Home   Weather   Bretten   Past weeks

Flag for Germany Past Weather in Bretten, Baden-Württemberg, Germany — Yesterday and Last 2 Weeks

Now
48 °F

Passing clouds.


Feels Like: 46 °F
Forecast: 37 / 47 °F
Wind: 6 mph from Southwest

Location: Mannheim City

Current Time: Apr 25, 2017 at 8:30:17 pm

Latest Report: Apr 25, 2017 at 7:50 pm


Visibility: N/A

Pressure: 29.80 "Hg

Humidity: 54%

Dew Point: 32 °F

Location of BrettenLocation

Past Weather in Bretten — Graph

°F

Bretten Temperature Yesterday

Maximum temperature yesterday: 63 °F (at 6:50 pm)
Minimum temperature yesterday: 32 °F (at 5:20 am)
Average temperature yesterday: 52 °F

High & Low Weather Summary for the Past Weeks

 TemperatureHumidityPressure
High63 °F (Apr 24, 6:50 pm)100% (Apr 24, 5:20 am)30.60 "Hg (Apr 24, 5:20 am)
Low28 °F (Apr 20, 5:50 am)28% (Apr 21, 12:50 pm)29.71 "Hg (Apr 25, 5:50 am)
Average49 °F51%30.24 "Hg
* Reported Apr 19 9:20 am — Apr 25 7:20 pm, Bretten, Weather by CustomWeather, © 2017

Note: Actual official high and low records may vary slightly from our data, if they occured in-between our weather recording intervals... More about our weather records

Advertising

Bretten Weather History for the Previous 24 Hours

Scroll right to see more
 ConditionsComfort  
Time TempWeatherWind HumidityBarometerVisibility
7:20 pm
Tue, Apr 25
48 °FPassing clouds.5 mph54%29.80 "HgN/A
6:50 pm50 °FPassing clouds.5 mph50%29.80 "HgN/A
6:20 pm50 °FPassing clouds.6 mph54%29.80 "HgN/A
5:50 pm50 °FPassing clouds.6 mph50%29.80 "HgN/A
5:20 pm50 °FPartly sunny.8 mph50%29.80 "HgN/A
4:50 pm50 °FPartly sunny.9 mph47%29.80 "HgN/A
4:20 pm48 °FPartly sunny.9 mph54%29.80 "HgN/A
3:50 pm48 °FPartly sunny.9 mph54%29.83 "HgN/A
3:20 pm48 °FOvercast.9 mph58%29.83 "HgN/A
2:50 pm48 °FPartly sunny.10 mph58%29.83 "HgN/A
2:20 pm48 °FOvercast.10 mph62%29.83 "HgN/A
1:50 pm46 °FOvercast.8 mph71%29.83 "HgN/A
1:20 pm46 °FPartly sunny.8 mph71%29.83 "HgN/A
12:50 pm46 °FScattered showers. Partly sunny.12 mph76%29.80 "HgN/A
12:20 pm46 °FScattered showers. Mostly cloudy.12 mph76%29.80 "HgN/A
11:50 am48 °FScattered showers. Partly sunny.13 mph66%29.80 "HgN/A
11:20 am50 °FScattered showers. Partly sunny.14 mph67%29.77 "HgN/A
10:50 am54 °FPartly sunny.10 mph58%29.77 "HgN/A
10:20 am54 °FPartly sunny.12 mph58%29.77 "HgN/A
9:50 am54 °FPassing clouds.9 mph58%29.74 "HgN/A
9:20 am52 °FPartly sunny.9 mph58%29.74 "HgN/A
8:50 am52 °FPartly sunny.5 mph54%29.74 "HgN/A
8:20 am50 °FPassing clouds.5 mph58%29.74 "HgN/A
7:50 am50 °FPassing clouds.5 mph54%29.74 "HgN/A
7:20 am48 °FPassing clouds.5 mph58%29.74 "HgN/A
6:50 am48 °FSunny.3 mph58%29.74 "Hg10 mi
6:20 am46 °FPassing clouds.5 mph62%29.74 "HgN/A
5:50 am46 °FClear.3 mph57%29.71 "Hg10 mi
8:50 pm
Mon, Apr 24
55 °FClear.2 mph44%29.80 "Hg10 mi
8:20 pm59 °FSunny.3 mph39%29.80 "Hg10 mi
Weather by CustomWeather, © 2017

See weather overviewHow to use our weather pages